This demonstration page uses our WeatherBlox Daily Observations layout. Learn more.

Left ArrowRight Arrow

Hourly Observations for March 14, 2022

Temp ( °F °C ) Dew Point ( °F °C ) Humidity (%) Winds ( mph kmh ) Pressure ( in mb ) Visibility ( mi km ) Precip ( " mm )
12:59 am 00:59 Clear 44 6.7 18 -7.8 35 35 SW 9 15 30.38 1029 10 16 0.00 0.00
1:59 am 01:59 Clear 43 6.1 19 -7.2 38 38 SW 8 13 30.39 1029 10 16 0.00 0.00
2:59 am 02:59 Clear 41 5 21 -6.1 45 45 SW 9 15 30.39 1029 10 16 0.00 0.00
3:59 am 03:59 Clear 39 3.9 22 -5.6 50 50 SW 9 15 30.38 1029 10 16 0.00 0.00
4:59 am 04:59 Clear 39 3.9 21 -6.1 48 48 SW 9 15 30.40 1029 10 16 0.00 0.00
5:59 am 05:59 Clear 37 2.8 22 -5.6 54 54 SW 7 11 30.42 1030 10 16 0.00 0.00
6:59 am 06:59 Clear 37 2.8 23 -5 57 57 SSW 5 7 30.43 1031 10 16 0.00 0.00
7:59 am 07:59 Mostly Sunny 37 2.8 25 -3.9 62 62 SSW 6 9 30.48 1032 10 16 0.00 0.00
8:59 am 08:59 Mostly Sunny 42 5.6 26 -3.3 53 53 SW 6 9 30.49 1032 10 16 0.00 0.00
9:59 am 09:59 Partly Cloudy 45 7.2 24 -4.4 44 44 VRB 6 9 30.51 1033 10 16 0.00 0.00
10:59 am 10:59 Partly Cloudy 49 9.4 25 -3.9 39 39 NW 5 7 30.53 1034 10 16 0.00 0.00
11:59 am 11:59 Sunny 53 11.7 26 -3.3 35 35 N 3 6 30.52 1034 10 16 0.00 0.00
12:59 pm 12:59 Partly Cloudy 58 14.4 29 -1.7 33 33 NE 5 7 30.50 1033 10 16 0.00 0.00
1:59 pm 13:59 Mostly Cloudy 58 14.4 29 -1.7 33 33 ENE 12 19 30.48 1032 10 16 0.00 0.00
2:59 pm 14:59 Mostly Cloudy 58 14.4 29 -1.7 33 33 ENE 10 17 30.44 1031 10 16 0.00 0.00
3:59 pm 15:59 Mostly Cloudy 59 15 26 -3.3 28 28 SE 6 9 30.43 1030 10 16 0.00 0.00
4:59 pm 16:59 Mostly Cloudy 60 15.6 27 -2.8 28 28 SSE 7 11 30.42 1030 10 16 0.00 0.00
5:59 pm 17:59 Mostly Cloudy 58 14.4 34 1.1 41 41 E 8 13 30.41 1030 10 16 0.00 0.00
6:59 pm 18:59 Partly Cloudy 55 12.8 31 -0.6 40 40 SE 6 9 30.42 1030 10 16 0.00 0.00
7:59 pm 19:59 Partly Cloudy 51 10.6 33 0.6 50 50 SSE 5 7 30.42 1030 10 16 0.00 0.00
8:59 pm 20:59 Partly Cloudy 49 9.4 35 1.7 59 59 SSE 6 9 30.44 1031 10 16 0.00 0.00
9:59 pm 21:59 Partly Cloudy 47 8.3 36 2.2 66 66 SSE 8 13 30.45 1031 10 16 0.00 0.00
10:59 pm 22:59 Mostly Clear 46 7.8 37 2.8 71 71 S 7 11 30.45 1031 10 16 0.00 0.00
11:59 pm 23:59 Mostly Clear 46 7.8 37 2.8 71 71 S 7 11 30.43 1031 10 16 0.00 0.00

Powered by AerisWeather